Regional Weather Roundup
Issued by NWS

Home | Current Version | Previous Version | Text Only | Print | Product List | Glossary Off
Versions: 1 2 3 4 5 6 7 8 9 10 11 12 13 14 15 16 17 18 19 20 21 22 23 24 25 26 27 28 29 30 31 32 33 34 35 36 37 38 39 40 41 42 43 44 45 46 47 48 49 50

000
ASUS43 KIND 220259
RWRIN

WEATHER ROUNDUP FOR INDIANA
NATIONAL WEATHER SERVICE INDIANAPOLIS IN
1100 PM EDT THU MAY 21 2015

NOTE: "FAIR" INDICATES FEW OR NO CLOUDS BELOW 12,000 FEET WITH NO
SIGNIFICANT WEATHER AND/OR OBSTRUCTIONS TO VISIBILITY.

* - STATION DOES NOT REPORT WEATHER SUCH AS PRECIPITATION OR FOG.

+ - STATION NOT QUALITY CONTROLLED BY THE NATIONAL WEATHER SERVICE.
    USE DATA WITH CAUTION...ESPECIALLY DEWPOINT AND RELATIVE
    HUMIDITY OBSERVATIONS.

INZ001>003-010>013-019-020-220400-
NORTHWEST INDIANA

CITY           SKY/WX    TMP DP  RH WIND       PRES   REMARKS
GARY /AIRPORT/ CLEAR     59  39  47 VRB5      30.04S
RENSSELAER +   CLEAR     54  37  54 SW5       30.08R

$$

LMZ046-743>745-220400-
SOUTHERN LAKE MICHIGAN

STATION/POSITION TIME  TEMP    WIND        PRES    WAVE
                       AIR SEA DIR/SP/G            HT
                 (UTC) (F)     (DEG/KT/KT) (MB)    (FT)
BURNS HARBOR     0200   63     210/  8/ 11 1017.6R
MICHIGAN CITY    0200   61     180/ 10/ 11   N/A
5NW MICH CITY    0200   56 52  210/  6/  8   N/A     0

$$

INZ004-005-014>016-021>024-220400-
NORTH CENTRAL INDIANA

CITY           SKY/WX    TMP DP  RH WIND       PRES   REMARKS
GOSHEN         CLEAR     49  37  63 SW8       30.04R
SOUTH BEND     CLEAR     54  35  48 SW7       30.05R

$$

INZ006>009-017-018-025>027-220400-
NORTHEAST INDIANA

CITY           SKY/WX    TMP DP  RH WIND       PRES   REMARKS
ANGOLA *+      CLEAR     46  36  66 CALM      30.03S
FORT WAYNE     CLEAR     49  41  74 SW8       30.06S

$$

INZ028-029-035-036-043>045-051>053-220400-
WEST CENTRAL INDIANA

CITY           SKY/WX    TMP DP  RH WIND       PRES   REMARKS
CRAWFORDSVL +  CLEAR     51  34  53 SW7       30.12R
GREENCASTLE +  CLEAR     48  37  66 CALM      30.14R
LAFAYETTE      CLEAR     52  40  63 SW3       30.09R
TERRE HAUTE    CLEAR     53  42  66 SW7       30.15R

$$

INZ030>032-037>040-046>048-054>057-064-065-220400-
CENTRAL INDIANA

CITY           SKY/WX    TMP DP  RH WIND       PRES   REMARKS
GREENWOOD *+   CLEAR     54  37  54 SW6       30.13R
INDIANAPOLIS   CLEAR     52  41  66 SW9       30.11R
-EAGLE CREEK   CLEAR     54  40  59 SW6       30.11R
KOKOMO *+      CLEAR     52  39  62 SW8       30.08S
MT COMFORT *+  CLEAR     54  30  40 SW9       30.12R
SHELBYVILLE    CLEAR     53  41  63 SW8       30.11R

$$

INZ033-034-041-042-049-050-058-059-220400-
EAST CENTRAL INDIANA

CITY           SKY/WX    TMP DP  RH WIND       PRES   REMARKS
MUNCIE         CLEAR     53  38  56 SW6       30.09R

$$

INZ060-061-067>069-081>083-085>088-220400-
SOUTHWEST INDIANA

CITY           SKY/WX    TMP DP  RH WIND       PRES   REMARKS
EVANSVILLE     CLEAR     50  45  83 SW3       30.20R
HUNTINGBURG *+ CLEAR     50  43  76 CALM      30.19S

$$

INZ062-063-066-070>080-084-089>092-220400-
SOUTH CENTRAL AND SOUTHEAST INDIANA

CITY           SKY/WX    TMP DP  RH WIND       PRES   REMARKS
BLOOMINGTON    CLEAR     51  43  74 SW9       30.15R
MADISON *+     CLEAR     46  43  87 CALM      30.17R
SEYMOUR +      CLEAR     48  41  76 SW8       30.15R

$$




USA.gov is the U.S. government's official web portal to all federal, state and local government web resources and services.